| time (UTC) | temp C | wind direction | speed KPH | gust KPH | rain 1hr cm | rain 24hr cm | rain mn cm | humidity % | barometer mb |
| 20260503013912 | 26 | 165 | 0.0 | 0.0 | 0.00 | 0.00 | 0.00 | 88 | 1011.6 |
| 20260503013853 | 26 | 169 | 0.0 | 1.6 | 0.00 | 0.00 | 0.00 | 88 | 1011.5 |
| 20260503012842 | 26 | 165 | 0.0 | 1.6 | 0.00 | 0.00 | 0.00 | 88 | 1011.5 |
| 20260503012341 | 26 | 169 | 0.0 | 1.6 | 0.00 | 0.00 | 0.00 | 88 | 1011.5 |
| 20260503012044 | 26 | 165 | 0.0 | 0.0 | 0.00 | 0.00 | 0.00 | 88 | 1011.5 |
| 20260503011311 | 26 | 167 | 0.0 | 0.0 | 0.00 | 0.00 | 0.00 | 87 | 1011.5 |
| 20260503010804 | 26 | 169 | 0.0 | 1.6 | 0.00 | 0.00 | 0.00 | 87 | 1011.5 |
| 20260503010234 | 26 | 169 | 0.0 | 1.6 | 0.00 | 0.00 | 0.00 | 87 | 1011.5 |
| 20260503005734 | 26 | 169 | 0.0 | 0.0 | 0.00 | 0.00 | 0.00 | 87 | 1011.6 |
| 20260503005204 | 26 | 167 | 0.0 | 0.0 | 0.00 | 0.00 | 0.00 | 87 | 1011.5 |
| 20260503004703 | 26 | 169 | 0.0 | 0.0 | 0.00 | 0.00 | 0.00 | 87 | 1011.6 |
| 20260503004134 | 27 | 167 | 0.0 | 0.0 | 0.00 | 0.00 | 0.00 | 87 | 1011.5 |
| 20260503003633 | 27 | 169 | 0.0 | 0.0 | 0.00 | 0.00 | 0.00 | 86 | 1011.5 |
| 20260503003106 | 27 | 167 | 0.0 | 1.6 | 0.00 | 0.00 | 0.00 | 86 | 1011.6 |
| 20260503002604 | 27 | 169 | 0.0 | 1.6 | 0.00 | 0.00 | 0.00 | 86 | 1011.6 |
| 20260503002035 | 27 | 168 | 0.0 | 1.6 | 0.00 | 0.00 | 0.00 | 86 | 1011.6 |
| 20260503001532 | 27 | 169 | 0.0 | 0.0 | 0.00 | 0.00 | 0.00 | 86 | 1011.6 |
| 20260503001034 | 27 | 165 | 0.0 | 0.0 | 0.00 | 0.00 | 0.00 | 86 | 1011.6 |
| 20260503000747 | 27 | 186 | 0.0 | 0.0 | 0.00 | 0.00 | 0.00 | 86 | 1011.5 |
| 20260503000240 | 27 | 167 | 0.0 | 0.0 | 0.00 | 0.00 | 0.00 | 86 | 1011.4 |
| 20260502235447 | 27 | 167 | 0.0 | 1.6 | 0.00 | 0.00 | 0.00 | 85 | 1011.4 |
| 20260502234948 | 27 | 167 | 0.0 | 1.6 | 0.00 | 0.00 | 0.00 | 85 | 1011.4 |
| 20260502234421 | 27 | 167 | 0.0 | 0.0 | 0.00 | 0.00 | 0.00 | 85 | 1011.2 |
| 20260502233851 | 27 | 186 | 0.0 | 0.0 | 0.00 | 0.00 | 0.00 | 85 | 1011.1 |
| 20260502233353 | 27 | 167 | 0.0 | 0.0 | 0.00 | 0.00 | 0.00 | 85 | 1011.1 |
| 20260502232823 | 28 | 168 | 0.0 | 0.0 | 0.00 | 0.00 | 0.00 | 85 | 1011.0 |
| 20260502232325 | 28 | 167 | 0.0 | 0.0 | 0.00 | 0.00 | 0.00 | 85 | 1011.0 |
| 20260502232011 | 28 | 167 | 0.0 | 0.0 | 0.00 | 0.00 | 0.00 | 85 | 1010.9 |
| 20260502231255 | 28 | 167 | 0.0 | 1.6 | 0.00 | 0.00 | 0.00 | 85 | 1010.7 |
| 20260502230723 | 28 | 168 | 0.0 | 1.6 | 0.00 | 0.00 | 0.00 | 85 | 1010.6 |
| 20260502230444 | 28 | 167 | 0.0 | 1.6 | 0.00 | 0.00 | 0.00 | 85 | 1010.5 |
| 20260502225657 | 28 | 167 | 0.0 | 0.0 | 0.00 | 0.00 | 0.00 | 85 | 1010.4 |
| 20260502225130 | 28 | 167 | 0.0 | 4.8 | 0.00 | 0.00 | 0.00 | 85 | 1010.2 |
| 20260502224626 | 28 | 168 | 0.0 | 4.8 | 0.00 | 0.00 | 0.00 | 85 | 1010.3 |
| 20260502224103 | 28 | 168 | 0.0 | 1.6 | 0.00 | 0.00 | 0.00 | 85 | 1010.2 |
| 20260502223534 | 28 | 166 | 0.0 | 4.8 | 0.00 | 0.00 | 0.00 | 85 | 1010.3 |
| 20260502223034 | 28 | 167 | 0.0 | 4.8 | 0.00 | 0.00 | 0.00 | 85 | 1010.2 |
| 20260502222504 | 28 | 166 | 0.0 | 4.8 | 0.00 | 0.00 | 0.00 | 85 | 1010.2 |
| 20260502222004 | 28 | 168 | 0.0 | 4.8 | 0.00 | 0.00 | 0.00 | 85 | 1010.1 |
| 20260502221433 | 28 | 166 | 0.0 | 1.6 | 0.00 | 0.00 | 0.00 | 85 | 1010.1 |
| 20260502220936 | 28 | 168 | 0.0 | 4.8 | 0.00 | 0.00 | 0.00 | 85 | 1010.1 |
| 20260502220630 | 28 | 168 | 0.0 | 4.8 | 0.00 | 0.00 | 0.00 | 85 | 1010.1 |
| 20260502215839 | 28 | 65 | 0.0 | 3.2 | 0.00 | 0.00 | 0.00 | 85 | 1010.0 |
| 20260502215605 | 28 | 60 | 0.0 | 1.6 | 0.00 | 0.00 | 0.00 | 85 | 1010.0 |
| 20260502214813 | 28 | 60 | 0.0 | 1.6 | 0.00 | 0.00 | 0.00 | 85 | 1010.0 |
| 20260502214244 | 28 | 60 | 0.0 | 1.6 | 0.00 | 0.00 | 0.00 | 85 | 1009.9 |
| 20260502214013 | 28 | 60 | 0.0 | 1.6 | 0.00 | 0.00 | 0.00 | 86 | 1009.8 |
| 20260502213443 | 28 | 60 | 0.0 | 1.6 | 0.00 | 0.00 | 0.00 | 86 | 1010.0 |
| 20260502212712 | 28 | 59 | 0.0 | 1.6 | 0.00 | 0.00 | 0.00 | 86 | 1009.9 |
| 20260502212439 | 28 | 66 | 0.0 | 1.6 | 0.00 | 0.00 | 0.00 | 86 | 1009.9 |
| 20260502211713 | 28 | 60 | 0.0 | 0.0 | 0.00 | 0.00 | 0.00 | 86 | 1009.9 |
| 20260502211159 | 28 | 61 | 0.0 | 0.0 | 0.00 | 0.00 | 0.00 | 86 | 1009.9 |
| 20260502210700 | 28 | 60 | 0.0 | 0.0 | 0.00 | 0.00 | 0.00 | 86 | 1009.8 |
| 20260502210139 | 28 | 59 | 0.0 | 1.6 | 0.00 | 0.00 | 0.00 | 87 | 1009.9 |
| 20260502205611 | 28 | 60 | 0.0 | 1.6 | 0.00 | 0.00 | 0.00 | 87 | 1009.8 |
| 20260502205341 | 28 | 61 | 0.0 | 1.6 | 0.00 | 0.00 | 0.00 | 87 | 1009.8 |
| 20260502204549 | 28 | 59 | 0.0 | 1.6 | 0.00 | 0.00 | 0.00 | 87 | 1009.8 |
| 20260502204022 | 28 | 66 | 0.0 | 1.6 | 0.00 | 0.00 | 0.00 | 86 | 1009.8 |
| 20260502203939 | 28 | 66 | 0.0 | 1.6 | 0.00 | 0.00 | 0.00 | 87 | 1009.9 |
| 20260502202931 | 28 | 59 | 0.0 | 1.6 | 0.00 | 0.00 | 0.00 | 85 | 1009.9 |
| 20260502202653 | 28 | 60 | 0.0 | 1.6 | 0.00 | 0.00 | 0.00 | 85 | 1010.0 |
| 20260502201932 | 28 | 66 | 0.0 | 1.6 | 0.00 | 0.00 | 0.00 | 85 | 1009.8 |
| 20260502201928 | 28 | 60 | 0.0 | 1.6 | 0.00 | 0.00 | 0.00 | 86 | 1009.8 |
| 20260502200903 | 28 | 60 | 0.0 | 1.6 | 0.00 | 0.00 | 0.00 | 84 | 1010.0 |
| 20260502200404 | 28 | 60 | 0.0 | 1.6 | 0.00 | 0.00 | 0.00 | 83 | 1010.0 |
| 20260502195844 | 28 | 66 | 0.0 | 1.6 | 0.00 | 0.00 | 0.00 | 84 | 1010.0 |
| 20260502195325 | 28 | 60 | 0.0 | 1.6 | 0.00 | 0.00 | 0.00 | 85 | 1009.8 |
| 20260502194821 | 28 | 67 | 0.0 | 1.6 | 0.00 | 0.00 | 0.00 | 86 | 1009.9 |
| 20260502194527 | 28 | 60 | 0.0 | 1.6 | 0.00 | 0.00 | 0.00 | 86 | 1010.0 |
| 20260502193740 | 28 | 60 | 0.0 | 1.6 | 0.00 | 0.00 | 0.00 | 86 | 1010.1 |
| 20260502193219 | 28 | 59 | 0.0 | 1.6 | 0.00 | 0.00 | 0.00 | 87 | 1010.1 |
| 20260502192723 | 28 | 161 | 0.0 | 1.6 | 0.00 | 0.00 | 0.00 | 88 | 1010.1 |
| 20260502192219 | 28 | 153 | 0.0 | 1.6 | 0.00 | 0.00 | 0.00 | 88 | 1010.1 |
| 20260502191720 | 28 | 153 | 0.0 | 1.6 | 0.00 | 0.00 | 0.00 | 87 | 1010.1 |
| 20260502191151 | 28 | 154 | 0.0 | 1.6 | 0.00 | 0.00 | 0.00 | 87 | 1010.2 |
| 20260502190646 | 28 | 154 | 0.0 | 1.6 | 0.00 | 0.00 | 0.00 | 89 | 1010.2 |
| 20260502190141 | 28 | 153 | 0.0 | 1.6 | 0.00 | 0.00 | 0.00 | 87 | 1010.1 |
| 20260502185648 | 28 | 155 | 1.6 | 1.6 | 0.00 | 0.00 | 0.00 | 88 | 1010.3 |
| 20260502185345 | 28 | 171 | 1.6 | 3.2 | 0.00 | 0.00 | 0.00 | 87 | 1010.4 |
| 20260502184625 | 28 | 155 | 0.0 | 3.2 | 0.00 | 0.00 | 0.00 | 87 | 1010.5 |
| 20260502184117 | 28 | 155 | 0.0 | 1.6 | 0.00 | 0.00 | 0.00 | 88 | 1010.6 |
| 20260502183617 | 28 | 153 | 0.0 | 1.6 | 0.00 | 0.00 | 0.00 | 88 | 1010.8 |
| 20260502183119 | 28 | 154 | 0.0 | 1.6 | 0.00 | 0.00 | 0.00 | 88 | 1010.9 |
| 20260502182619 | 28 | 173 | 0.0 | 1.6 | 0.00 | 0.00 | 0.00 | 88 | 1010.9 |
| 20260502182120 | 28 | 154 | 0.0 | 3.2 | 0.00 | 0.00 | 0.00 | 88 | 1010.9 |
| 20260502181822 | 28 | 172 | 0.0 | 3.2 | 0.00 | 0.00 | 0.00 | 87 | 1011.3 |
| 20260502181056 | 28 | 153 | 1.6 | 3.2 | 0.00 | 0.00 | 0.00 | 87 | 1011.1 |
| 20260502180556 | 29 | 153 | 1.6 | 3.2 | 0.00 | 0.00 | 0.00 | 86 | 1011.3 |
| 20260502170409 | 28 | 182 | 0.0 | 1.6 | 0.00 | 0.00 | 0.00 | 88 | 1011.8 |
| 20260502164309 | 29 | 155 | 0.0 | 3.2 | 0.00 | 0.00 | 0.00 | 85 | 1012.2 |
| 20260502163755 | 30 | 155 | 1.6 | 3.2 | 0.00 | 0.00 | 0.00 | 84 | 1012.2 |
| 20260502163259 | 30 | 154 | 0.0 | 3.2 | 0.00 | 0.00 | 0.00 | 85 | 1012.2 |
| 20260502162739 | 29 | 200 | 0.0 | 1.6 | 0.00 | 0.00 | 0.00 | 83 | 1012.1 |
| 20260502162241 | 29 | 178 | 0.0 | 3.2 | 0.00 | 0.00 | 0.00 | 83 | 1012.2 |
| 20260502161743 | 29 | 199 | 0.0 | 3.2 | 0.00 | 0.00 | 0.00 | 84 | 1012.3 |
| 20260502161225 | 28 | 200 | 0.0 | 1.6 | 0.00 | 0.00 | 0.00 | 84 | 1012.3 |
| 20260502160725 | 28 | 177 | 0.0 | 1.6 | 0.00 | 0.00 | 0.00 | 83 | 1012.2 |
| 20260502160203 | 28 | 178 | 0.0 | 1.6 | 0.00 | 0.00 | 0.00 | 84 | 1012.2 |
| 20260502151949 | 29 | 200 | 1.6 | 3.2 | 0.00 | 0.00 | 0.00 | 80 | 1011.6 |
| 20260502151642 | 29 | 199 | 1.6 | 3.2 | 0.00 | 0.00 | 0.00 | 79 | 1011.8 |
| 20260502150859 | 28 | 178 | 1.6 | 3.2 | 0.00 | 0.00 | 0.00 | 79 | 1011.7 |
| 20260502150626 | 28 | 200 | 0.0 | 3.2 | 0.00 | 0.00 | 0.00 | 80 | 1011.6 |
| 20260502130509 | 25 | 182 | 1.6 | 4.8 | 0.00 | 0.00 | 0.00 | 94 | 1010.3 |
| 20260502123327 | 24 | 179 | 0.0 | 1.6 | 0.00 | 0.00 | 0.00 | 94 | 1010.2 |
| 20260502122825 | 24 | 200 | 0.0 | 1.6 | 0.00 | 0.00 | 0.00 | 94 | 1010.1 |
| 20260502122550 | 23 | 182 | 0.0 | 3.2 | 0.00 | 0.00 | 0.00 | 94 | 1010.1 |
| 20260502121829 | 23 | 183 | 0.0 | 3.2 | 0.00 | 0.00 | 0.00 | 94 | 1010.1 |
| 20260502121535 | 23 | 0.0 | 0.0 | 0.00 | 0.00 | 0.00 | 94 | 1010.0 | |
| 20260502120745 | 23 | 0.0 | 0.0 | 0.00 | 0.00 | 0.00 | 94 | 1009.9 | |
| 20260502120423 | 23 | 0.0 | 0.0 | 0.00 | 0.00 | 0.00 | 94 | 1009.8 | |
| 20260502115702 | 23 | 0.0 | 0.0 | 0.00 | 0.00 | 0.00 | 94 | 1009.6 | |
| 20260502115201 | 23 | 0.0 | 0.0 | 0.00 | 0.00 | 0.00 | 94 | 1009.7 | |
| 20260502114635 | 23 | 0.0 | 0.0 | 0.00 | 0.00 | 0.00 | 94 | 1009.8 | |
| 20260502114108 | 23 | 0.0 | 0.0 | 0.00 | 0.00 | 0.00 | 94 | 1009.9 | |
| 20260502113553 | 23 | 0.0 | 0.0 | 0.00 | 0.00 | 0.00 | 94 | 1010.2 | |
| 20260502113035 | 23 | 0.0 | 0.0 | 0.00 | 0.00 | 0.00 | 94 | 1010.2 | |
| 20260502112538 | 23 | 0.0 | 0.0 | 0.00 | 0.00 | 0.00 | 94 | 1010.2 | |
| 20260502112012 | 23 | 0.0 | 0.0 | 0.00 | 0.00 | 0.00 | 94 | 1010.2 | |
| 20260502111514 | 23 | 0.0 | 0.0 | 0.00 | 0.00 | 0.00 | 94 | 1010.2 | |
| 20260502111012 | 23 | 0.0 | 0.0 | 0.00 | 0.00 | 0.00 | 94 | 1010.1 | |
| 20260502110459 | 23 | 0.0 | 0.0 | 0.00 | 0.00 | 0.00 | 94 | 1010.0 | |
| 20260502105957 | 23 | 0.0 | 0.0 | 0.00 | 0.00 | 0.00 | 93 | 1009.9 | |
| 20260502105457 | 23 | 0.0 | 0.0 | 0.00 | 0.00 | 0.00 | 93 | 1009.8 | |
| 20260502104936 | 23 | 0.0 | 0.0 | 0.00 | 0.00 | 0.00 | 93 | 1009.7 | |
| 20260502104433 | 23 | 0.0 | 0.0 | 0.00 | 0.00 | 0.00 | 93 | 1009.6 | |
| 20260502103912 | 23 | 0.0 | 0.0 | 0.00 | 0.00 | 0.00 | 93 | 1009.4 | |
| 20260502103408 | 23 | 0.0 | 0.0 | 0.00 | 0.00 | 0.00 | 93 | 1009.4 | |
| 20260502102853 | 24 | 0.0 | 0.0 | 0.00 | 0.00 | 0.00 | 93 | 1009.2 | |
| 20260502102323 | 24 | 0.0 | 0.0 | 0.00 | 0.00 | 0.00 | 93 | 1009.1 | |
| 20260502101809 | 24 | 0.0 | 0.0 | 0.00 | 0.00 | 0.00 | 93 | 1009.1 | |
| 20260502101438 | 24 | 0.0 | 0.0 | 0.00 | 0.00 | 0.00 | 93 | 1009.0 | |
| 20260502100716 | 24 | 0.0 | 0.0 | 0.00 | 0.00 | 0.00 | 93 | 1009.0 | |
| 20260502100140 | 24 | 0.0 | 0.0 | 0.00 | 0.00 | 0.00 | 93 | 1008.9 | |
| 20260502091346 | 24 | 0.0 | 0.0 | 0.00 | 0.00 | 0.00 | 93 | 1008.3 | |
| 20260502090829 | 24 | 0.0 | 0.0 | 0.00 | 0.00 | 0.00 | 93 | 1008.4 | |
| 20260502090319 | 24 | 0.0 | 0.0 | 0.00 | 0.00 | 0.00 | 93 | 1008.4 | |
| 20260502071235 | 25 | 0.0 | 0.0 | 0.00 | 0.00 | 0.00 | 93 | 1009.2 | |
| 20260502070717 | 25 | 0.0 | 0.0 | 0.00 | 0.00 | 0.00 | 93 | 1009.2 | |
| 20260502070148 | 25 | 0.0 | 0.0 | 0.00 | 0.00 | 0.00 | 93 | 1009.2 | |
| 20260502065622 | 25 | 0.0 | 0.0 | 0.00 | 0.00 | 0.00 | 93 | 1009.3 | |
| 20260502065314 | 25 | 0.0 | 0.0 | 0.00 | 0.00 | 0.00 | 93 | 1009.2 | |
| 20260502064517 | 25 | 0.0 | 0.0 | 0.00 | 0.00 | 0.00 | 93 | 1009.2 | |
| 20260502063951 | 25 | 0.0 | 0.0 | 0.00 | 0.00 | 0.00 | 93 | 1009.2 | |
| 20260502063442 | 25 | 0.0 | 0.0 | 0.00 | 0.00 | 0.00 | 93 | 1009.1 | |
| 20260502062920 | 25 | 0.0 | 0.0 | 0.00 | 0.00 | 0.00 | 93 | 1009.0 | |
| 20260502062358 | 25 | 0.0 | 0.0 | 0.00 | 0.00 | 0.00 | 93 | 1008.9 | |
| 20260502062310 | 25 | 0.0 | 0.0 | 0.00 | 0.00 | 0.00 | 93 | 1008.7 | |
| 20260502061322 | 25 | 0.0 | 0.0 | 0.00 | 0.00 | 0.00 | 93 | 1008.6 | |
| 20260502060750 | 25 | 0.0 | 0.0 | 0.00 | 0.00 | 0.00 | 93 | 1008.5 | |
| 20260502060423 | 25 | 0.0 | 0.0 | 0.00 | 0.00 | 0.00 | 93 | 1008.5 | |
| 20260502055652 | 25 | 0.0 | 0.0 | 0.00 | 0.00 | 0.00 | 93 | 1008.4 | |
| 20260502055136 | 25 | 0.0 | 0.0 | 0.00 | 0.00 | 0.00 | 93 | 1008.6 | |
| 20260502054630 | 25 | 0.0 | 0.0 | 0.00 | 0.00 | 0.00 | 93 | 1008.5 | |
| 20260502054349 | 25 | 0.0 | 0.0 | 0.00 | 0.00 | 0.00 | 93 | 1008.5 | |
| 20260502053543 | 25 | 0.0 | 0.0 | 0.00 | 0.00 | 0.00 | 93 | 1008.6 | |
| 20260502053019 | 25 | 0.0 | 0.0 | 0.00 | 0.00 | 0.00 | 93 | 1008.8 | |
| 20260502052524 | 25 | 0.0 | 0.0 | 0.00 | 0.00 | 0.00 | 93 | 1009.0 | |
| 20260502052235 | 25 | 0.0 | 0.0 | 0.00 | 0.00 | 0.00 | 93 | 1009.3 | |
| 20260502051455 | 25 | 0.0 | 0.0 | 0.00 | 0.00 | 0.00 | 93 | 1009.5 | |
| 20260502050907 | 25 | 0.0 | 0.0 | 0.00 | 0.00 | 0.00 | 93 | 1009.6 | |
| 20260502050400 | 25 | 0.0 | 0.0 | 0.00 | 0.00 | 0.00 | 93 | 1009.7 | |
| 20260502045858 | 25 | 0.0 | 0.0 | 0.00 | 0.00 | 0.00 | 93 | 1009.9 | |
| 20260502045333 | 25 | 0.0 | 0.0 | 0.00 | 0.00 | 0.00 | 93 | 1009.9 | |
| 20260502044817 | 25 | 0.0 | 0.0 | 0.00 | 0.00 | 0.00 | 92 | 1009.9 | |
| 20260502044318 | 25 | 0.0 | 0.0 | 0.00 | 0.00 | 0.00 | 92 | 1009.9 | |
| 20260502043803 | 25 | 0.0 | 0.0 | 0.00 | 0.00 | 0.00 | 93 | 1010.1 | |
| 20260502043528 | 25 | 0.0 | 0.0 | 0.00 | 0.00 | 0.00 | 92 | 1010.1 | |
| 20260502043002 | 25 | 0.0 | 0.0 | 0.00 | 0.00 | 0.00 | 93 | 1010.3 | |
| 20260502042236 | 25 | 0.0 | 0.0 | 0.00 | 0.00 | 0.00 | 92 | 1010.4 | |
| 20260502041728 | 25 | 0.0 | 0.0 | 0.00 | 0.00 | 0.00 | 92 | 1010.4 | |
| 20260502041442 | 25 | 0.0 | 0.0 | 0.00 | 0.00 | 0.00 | 92 | 1010.4 | |
| 20260502040659 | 25 | 0.0 | 1.6 | 0.00 | 0.00 | 0.00 | 92 | 1010.4 | |
| 20260502040054 | 25 | 134 | 0.0 | 1.6 | 0.00 | 0.00 | 0.00 | 92 | 1010.6 |
| 20260502035552 | 25 | 134 | 0.0 | 1.6 | 0.00 | 0.03 | 0.00 | 92 | 1010.7 |
| 20260502035050 | 25 | 133 | 0.0 | 1.6 | 0.00 | 0.03 | 0.00 | 92 | 1010.9 |
| 20260502034523 | 25 | 144 | 1.6 | 3.2 | 0.00 | 0.03 | 0.00 | 92 | 1010.8 |
| 20260502034004 | 25 | 169 | 1.6 | 3.2 | 0.00 | 0.03 | 0.00 | 92 | 1010.6 |
| 20260502033459 | 25 | 161 | 0.0 | 3.2 | 0.00 | 0.05 | 0.00 | 92 | 1010.5 |
| 20260502033002 | 25 | 144 | 1.6 | 6.4 | 0.00 | 0.05 | 0.00 | 92 | 1010.6 |
| 20260502032436 | 26 | 145 | 0.0 | 6.4 | 0.00 | 0.05 | 0.00 | 92 | 1010.6 |
| 20260502031928 | 26 | 144 | 0.0 | 1.6 | 0.00 | 0.05 | 0.00 | 92 | 1010.6 |
| 20260502031433 | 26 | 146 | 0.0 | 1.6 | 0.00 | 0.05 | 0.00 | 92 | 1010.5 |
| 20260502030920 | 26 | 144 | 0.0 | 1.6 | 0.00 | 0.05 | 0.00 | 92 | 1010.5 |
| 20260502030425 | 26 | 146 | 0.0 | 1.6 | 0.00 | 0.05 | 0.00 | 92 | 1010.4 |
| 20260502025857 | 26 | 169 | 0.0 | 1.6 | 0.00 | 0.05 | 0.00 | 92 | 1010.4 |
| 20260502025328 | 26 | 146 | 0.0 | 1.6 | 0.00 | 0.05 | 0.00 | 92 | 1010.4 |
| 20260502024830 | 26 | 161 | 0.0 | 1.6 | 0.00 | 0.05 | 0.00 | 92 | 1010.3 |
| 20260502024306 | 26 | 160 | 0.0 | 1.6 | 0.00 | 0.05 | 0.00 | 92 | 1010.3 |
| 20260502024026 | 26 | 159 | 0.0 | 1.6 | 0.00 | 0.05 | 0.00 | 91 | 1010.2 |
| 20260502023300 | 26 | 144 | 0.0 | 1.6 | 0.00 | 0.05 | 0.00 | 91 | 1010.0 |
| 20260502022728 | 26 | 159 | 0.0 | 1.6 | 0.00 | 0.08 | 0.00 | 91 | 1009.9 |
| 20260502022226 | 26 | 146 | 0.0 | 0.0 | 0.00 | 0.15 | 0.00 | 91 | 1009.9 |
| 20260502021730 | 26 | 142 | 0.0 | 1.6 | 0.00 | 0.23 | 0.00 | 91 | 1009.8 |
| 20260502021223 | 26 | 160 | 0.0 | 1.6 | 0.00 | 0.23 | 0.00 | 91 | 1009.7 |
| 20260502020723 | 26 | 144 | 0.0 | 0.0 | 0.00 | 0.23 | 0.00 | 91 | 1009.5 |
| 20260502020153 | 26 | 160 | 0.0 | 0.0 | 0.00 | 0.23 | 0.00 | 91 | 1009.5 |
| 20260502015650 | 26 | 144 | 0.0 | 0.0 | 0.00 | 0.23 | 0.00 | 91 | 1009.4 |
| 20260502015123 | 26 | 160 | 0.0 | 1.6 | 0.00 | 0.23 | 0.00 | 91 | 1009.3 |
| 20260502014556 | 26 | 142 | 0.0 | 3.2 | 0.00 | 0.23 | 0.00 | 91 | 1009.3 |